When you browse on this site, cookies collect data to enhance your experience and personalize the content and advertising you see.
Visit our Privacy Policy to learn more. By continuing to use the site, you agree to this use of cookies and data.
  • In Lithuania
  • List of Countries
  • For 7 days
  • Water Temperature
  • Satellite Maps
  • Weather Map
  • Weather Widgets
  • user-avatar
    Login

    Hourly Weather Korçe

    Today, 17 January, Thursday

    Time Temperature Precipitation Wind Pressure Humidity
    00:00 -3°C° 0 mm 1 mps 666 mmHg 74%
    01:00 -3°C° 0 mm 1 mps 666 mmHg 76%
    02:00 -3°C° 0 mm 1 mps 666 mmHg 75%
    03:00 -3°C° 0 mm 1 mps 666 mmHg 74%
    04:00 -4°C° 0 mm 0 mps 666 mmHg 73%
    05:00 -3°C° 0 mm 1 mps 666 mmHg 72%
    06:00 -3°C° 0 mm 1 mps 666 mmHg 70%
    07:00 -3°C° 0 mm 1 mps 666 mmHg 69%
    08:00 -1°C° 0 mm 1 mps 666 mmHg 67%
    09:00 +1°C° 0 mm 1 mps 667 mmHg 64%
    10:00 +3°C° 0 mm 1 mps 668 mmHg 62%
    11:00 +4°C° 0 mm 1 mps 667 mmHg 63%
    12:00 +4°C° 0 mm 1 mps 667 mmHg 64%
    13:00 +5°C° 0 mm 1 mps 667 mmHg 64%
    14:00 +4°C° 0 mm 1 mps 667 mmHg 66%
    15:00 +3°C° 0 mm 1 mps 667 mmHg 67%
    16:00 +2°C° 0 mm 1 mps 666 mmHg 69%
    17:00 +1°C° 0 mm 1 mps 666 mmHg 72%
    18:00 0°C° 0 mm 1 mps 665 mmHg 76%
    19:00 -3°C° 0 mm 2 mps 665 mmHg 79%
    20:00 -4°C° 0 mm 2 mps 665 mmHg 81%
    21:00 -4°C° 0 mm 2 mps 665 mmHg 83%
    22:00 -4°C° 0 mm 2 mps 665 mmHg 85%
    23:00 -3°C° 0 mm 2 mps 665 mmHg 87%

    Tomorrow, 18 January, Friday

    Time Temperature Precipitation Wind Pressure Humidity
    00:00 -3°C° 0 mm 2 mps 665 mmHg 89%
    01:00 -3°C° 0 mm 2 mps 665 mmHg 92%
    02:00 -3°C° 0 mm 2 mps 665 mmHg 93%
    03:00 -2°C° 0 mm 2 mps 665 mmHg 94%
    04:00 -2°C° 0 mm 2 mps 665 mmHg 96%
    05:00 -1°C° 0.1 mm 2 mps 665 mmHg 96%
    06:00 -1°C° 0.1 mm 2 mps 665 mmHg 96%
    07:00 +1°C° 0.1 mm 2 mps 665 mmHg 97%
    08:00 +1°C° 0.7 mm 2 mps 665 mmHg 96%
    09:00 +1°C° 0.7 mm 2 mps 665 mmHg 95%
    10:00 +2°C° 0.7 mm 2 mps 665 mmHg 94%
    11:00 +2°C° 1.1 mm 2 mps 665 mmHg 94%
    12:00 +2°C° 1.1 mm 2 mps 664 mmHg 94%
    13:00 +2°C° 1.1 mm 2 mps 664 mmHg 94%
    14:00 +1°C° 0.8 mm 2 mps 664 mmHg 94%
    15:00 +1°C° 0.8 mm 2 mps 664 mmHg 95%
    16:00 +1°C° 0.8 mm 2 mps 664 mmHg 95%
    17:00 +1°C° 0.7 mm 2 mps 664 mmHg 95%
    18:00 +1°C° 0.7 mm 2 mps 664 mmHg 95%
    19:00 +1°C° 0.7 mm 2 mps 664 mmHg 95%
    20:00 +1°C° 0.8 mm 2 mps 664 mmHg 95%
    21:00 +1°C° 0.8 mm 2 mps 664 mmHg 96%
    22:00 +1°C° 0.8 mm 2 mps 665 mmHg 97%
    23:00 +1°C° 0.3 mm 2 mps 664 mmHg 96%

    Day after tomorrow, 19 January, Saturday

    Time Temperature Precipitation Wind Pressure Humidity
    00:00 +1°C° 0.3 mm 2 mps 664 mmHg 96%
    01:00 0°C° 0.3 mm 3 mps 664 mmHg 96%
    02:00 +1°C° 0 mm 2 mps 664 mmHg 96%
    03:00 -1°C° 0 mm 2 mps 664 mmHg 95%
    04:00 -1°C° 0 mm 2 mps 663 mmHg 95%
    05:00 -1°C° 0 mm 2 mps 663 mmHg 94%
    06:00 -1°C° 0 mm 2 mps 663 mmHg 94%
    07:00 -1°C° 0 mm 2 mps 664 mmHg 93%
    08:00 +1°C° 0.1 mm 2 mps 664 mmHg 93%
    09:00 +2°C° 0.1 mm 2 mps 664 mmHg 92%
    10:00 +2°C° 0.1 mm 3 mps 665 mmHg 91%
    11:00 +3°C° 0.7 mm 2 mps 664 mmHg 92%
    12:00 +3°C° 0.7 mm 2 mps 664 mmHg 93%
    13:00 +3°C° 0.7 mm 2 mps 663 mmHg 94%
    14:00 +3°C° 0.4 mm 2 mps 663 mmHg 94%
    15:00 +3°C° 0.4 mm 2 mps 663 mmHg 94%
    16:00 +3°C° 0.4 mm 2 mps 663 mmHg 94%
    17:00 +2°C° 0.2 mm 2 mps 663 mmHg 93%
    18:00 +2°C° 0.2 mm 2 mps 663 mmHg 92%
    19:00 +2°C° 0.2 mm 2 mps 663 mmHg 92%
    20:00 +1°C° 0 mm 2 mps 663 mmHg 92%
    21:00 +1°C° 0 mm 2 mps 663 mmHg 91%
    22:00 -1°C° 0 mm 2 mps 663 mmHg 91%
    23:00 -1°C° 0 mm 2 mps 663 mmHg 91%

    20 January, Sunday

    Time Temperature Precipitation Wind Pressure Humidity
    00:00 -1°C° 0 mm 2 mps 663 mmHg 90%
    01:00 -1°C° 0 mm 2 mps 663 mmHg 90%
    02:00 -1°C° 0.1 mm 2 mps 663 mmHg 90%
    03:00 -1°C° 0.1 mm 2 mps 662 mmHg 91%
    04:00 -1°C° 0.1 mm 2 mps 662 mmHg 91%
    05:00 -1°C° 0 mm 2 mps 662 mmHg 91%
    06:00 -1°C° 0 mm 2 mps 662 mmHg 90%
    07:00 -2°C° 0 mm 2 mps 662 mmHg 90%
    08:00 +1°C° 0 mm 2 mps 663 mmHg 89%
    09:00 +2°C° 0 mm 2 mps 663 mmHg 88%
    10:00 +3°C° 0 mm 2 mps 664 mmHg 87%
    11:00 +4°C° 0.2 mm 2 mps 664 mmHg 86%
    12:00 +4°C° 0.2 mm 2 mps 664 mmHg 84%
    13:00 +4°C° 0.2 mm 2 mps 664 mmHg 83%
    14:00 +4°C° 0.2 mm 2 mps 663 mmHg 85%
    15:00 +4°C° 0.2 mm 1 mps 663 mmHg 86%
    16:00 +4°C° 0.2 mm 1 mps 663 mmHg 87%
    17:00 +3°C° 0 mm 1 mps 663 mmHg 89%
    18:00 +2°C° 0 mm 1 mps 663 mmHg 91%
    19:00 +1°C° 0 mm 1 mps 663 mmHg 93%
    20:00 +1°C° 0 mm 1 mps 663 mmHg 94%
    21:00 0°C° 0 mm 1 mps 664 mmHg 94%
    22:00 0°C° 0 mm 1 mps 664 mmHg 94%
    23:00 0°C° 0 mm 1 mps 664 mmHg 93%

    21 January, Monday

    Time Temperature Precipitation Wind Pressure Humidity
    00:00 -1°C° 0 mm 1 mps 664 mmHg 92%
    01:00 -1°C° 0 mm 1 mps 664 mmHg 91%
    02:00 -1°C° 0 mm 1 mps 664 mmHg 90%
    03:00 -1°C° 0 mm 1 mps 663 mmHg 89%
    04:00 -1°C° 0 mm 1 mps 663 mmHg 87%
    05:00 -1°C° 0 mm 1 mps 663 mmHg 87%
    06:00 -3°C° 0 mm 2 mps 663 mmHg 86%
    07:00 -3°C° 0 mm 2 mps 664 mmHg 85%
    08:00 -1°C° 0 mm 2 mps 664 mmHg 83%
    09:00 +1°C° 0 mm 2 mps 665 mmHg 81%
    10:00 +3°C° 0 mm 2 mps 665 mmHg 80%
    11:00 +4°C° 0 mm 2 mps 665 mmHg 79%
    12:00 +4°C° 0 mm 2 mps 665 mmHg 79%
    13:00 +5°C° 0 mm 2 mps 665 mmHg 79%
    14:00 +4°C° 0 mm 2 mps 664 mmHg 81%
    15:00 +4°C° 0 mm 2 mps 664 mmHg 83%
    16:00 +3°C° 0 mm 2 mps 663 mmHg 86%
    17:00 +3°C° 0.1 mm 2 mps 663 mmHg 87%
    18:00 +2°C° 0.1 mm 2 mps 663 mmHg 89%
    19:00 +2°C° 0.1 mm 2 mps 663 mmHg 90%
    20:00 +1°C° 0.7 mm 2 mps 663 mmHg 90%
    21:00 +1°C° 0.7 mm 2 mps 663 mmHg 90%
    22:00 +1°C° 0.7 mm 2 mps 663 mmHg 90%
    23:00 0°C° 1.1 mm 3 mps 662 mmHg 90%

    22 January, Tuesday

    Time Temperature Precipitation Wind Pressure Humidity
    00:00 0°C° 1.1 mm 3 mps 662 mmHg 91%
    01:00 0°C° 1.1 mm 3 mps 661 mmHg 92%
    02:00 0°C° 1.1 mm 3 mps 661 mmHg 92%
    03:00 0°C° 1.1 mm 3 mps 660 mmHg 92%
    04:00 +1°C° 1.1 mm 3 mps 660 mmHg 92%
    05:00 +1°C° 1.4 mm 3 mps 660 mmHg 93%
    06:00 +1°C° 1.4 mm 3 mps 660 mmHg 93%
    07:00 +1°C° 1.4 mm 3 mps 659 mmHg 94%
    08:00 +1°C° 3.3 mm 3 mps 659 mmHg 95%
    09:00 +1°C° 3.3 mm 3 mps 659 mmHg 95%
    10:00 +1°C° 3.3 mm 3 mps 659 mmHg 96%
    11:00 +2°C° 1.2 mm 3 mps 659 mmHg 96%
    12:00 +2°C° 1.2 mm 3 mps 658 mmHg 96%
    13:00 +2°C° 1.2 mm 3 mps 658 mmHg 96%
    14:00 +2°C° 1.6 mm 3 mps 658 mmHg 97%
    15:00 +2°C° 1.6 mm 3 mps 657 mmHg 97%
    16:00 +2°C° 1.6 mm 3 mps 657 mmHg 97%
    17:00 +1°C° 0.9 mm 3 mps 657 mmHg 97%
    18:00 +2°C° 0.9 mm 2 mps 657 mmHg 97%
    19:00 +2°C° 0.9 mm 2 mps 657 mmHg 97%
    20:00 +2°C° 0.1 mm 2 mps 657 mmHg 97%
    21:00 +2°C° 0.1 mm 2 mps 657 mmHg 98%
    22:00 +2°C° 0.1 mm 2 mps 657 mmHg 98%
    23:00 +2°C° 0 mm 2 mps 657 mmHg 98%
    Show more